When you browse on this site, cookies collect data to enhance your experience and personalize the content and advertising you see.
Visit our Privacy Policy to learn more. By continuing to use the site, you agree to this use of cookies and data.
  • In Hungary
  • List of Countries
  • For 7 days
  • Water Temperature
  • Satellite Maps
  • Weather Map
  • News
  • Weather Widgets
  • user-avatar
    Login

    Hourly Weather Jataizinho

    Today, 21 November, Wednesday

    Time Temperature Precipitation Wind Pressure Humidity
    00:00 +20°C° 0 mm 4 mps 731 mmHg 74%
    01:00 +19°C° 0 mm 4 mps 731 mmHg 76%
    02:00 +18°C° 0 mm 4 mps 731 mmHg 77%
    03:00 +18°C° 0 mm 4 mps 731 mmHg 78%
    04:00 +17°C° 0 mm 4 mps 731 mmHg 78%
    05:00 +17°C° 0 mm 4 mps 731 mmHg 79%
    06:00 +17°C° 0 mm 4 mps 731 mmHg 80%
    07:00 +19°C° 0 mm 4 mps 731 mmHg 75%
    08:00 +21°C° 0 mm 4 mps 731 mmHg 70%
    09:00 +25°C° 0 mm 4 mps 732 mmHg 66%
    10:00 +27°C° 0 mm 4 mps 731 mmHg 62%
    11:00 +29°C° 0 mm 3 mps 731 mmHg 58%
    12:00 +30°C° 0 mm 3 mps 730 mmHg 53%
    13:00 +31°C° 0 mm 3 mps 730 mmHg 52%
    14:00 +33°C° 0 mm 3 mps 729 mmHg 50%
    15:00 +33°C° 0 mm 3 mps 729 mmHg 49%
    16:00 +31°C° 0 mm 3 mps 728 mmHg 54%
    17:00 +30°C° 0 mm 3 mps 728 mmHg 59%
    18:00 +29°C° 0 mm 3 mps 728 mmHg 64%
    19:00 +28°C° 0 mm 4 mps 728 mmHg 67%
    20:00 +26°C° 0 mm 4 mps 728 mmHg 71%
    21:00 +25°C° 0 mm 5 mps 729 mmHg 75%
    22:00 +23°C° 0 mm 5 mps 729 mmHg 77%
    23:00 +22°C° 0 mm 4 mps 730 mmHg 79%

    Tomorrow, 22 November, Thursday

    Time Temperature Precipitation Wind Pressure Humidity
    00:00 +21°C° 0 mm 4 mps 730 mmHg 82%
    01:00 +21°C° 0 mm 4 mps 730 mmHg 84%
    02:00 +21°C° 0 mm 4 mps 729 mmHg 86%
    03:00 +20°C° 0 mm 4 mps 729 mmHg 88%
    04:00 +20°C° 0 mm 3 mps 729 mmHg 88%
    05:00 +20°C° 0 mm 3 mps 729 mmHg 89%
    06:00 +20°C° 0 mm 3 mps 729 mmHg 89%
    07:00 +22°C° 0 mm 3 mps 729 mmHg 84%
    08:00 +25°C° 0 mm 3 mps 730 mmHg 79%
    09:00 +27°C° 0 mm 3 mps 730 mmHg 73%
    10:00 +28°C° 0.1 mm 3 mps 730 mmHg 70%
    11:00 +29°C° 0.1 mm 2 mps 730 mmHg 66%
    12:00 +30°C° 0.1 mm 2 mps 730 mmHg 62%
    13:00 +31°C° 0.2 mm 2 mps 729 mmHg 61%
    14:00 +32°C° 0.2 mm 2 mps 728 mmHg 59%
    15:00 +32°C° 0.2 mm 2 mps 727 mmHg 57%
    16:00 +32°C° 0.1 mm 2 mps 727 mmHg 60%
    17:00 +31°C° 0.1 mm 2 mps 727 mmHg 63%
    18:00 +30°C° 0.1 mm 2 mps 727 mmHg 66%
    19:00 +29°C° 0.1 mm 2 mps 727 mmHg 72%
    20:00 +27°C° 0.1 mm 2 mps 727 mmHg 78%
    21:00 +26°C° 0.1 mm 2 mps 728 mmHg 83%
    22:00 +25°C° 0 mm 2 mps 728 mmHg 85%
    23:00 +25°C° 0 mm 2 mps 728 mmHg 86%

    Day after tomorrow, 23 November, Friday

    Time Temperature Precipitation Wind Pressure Humidity
    00:00 +25°C° 0 mm 2 mps 728 mmHg 87%
    01:00 +24°C° 0.1 mm 2 mps 728 mmHg 89%
    02:00 +24°C° 0.1 mm 2 mps 727 mmHg 90%
    03:00 +24°C° 0.1 mm 2 mps 727 mmHg 91%
    04:00 +23°C° 0 mm 2 mps 727 mmHg 91%
    05:00 +23°C° 0 mm 2 mps 727 mmHg 92%
    06:00 +23°C° 0 mm 2 mps 727 mmHg 92%
    07:00 +25°C° 0 mm 3 mps 728 mmHg 83%
    08:00 +27°C° 0 mm 3 mps 728 mmHg 74%
    09:00 +29°C° 0 mm 3 mps 729 mmHg 65%
    10:00 +31°C° 0.1 mm 3 mps 728 mmHg 61%
    11:00 +33°C° 0.1 mm 3 mps 728 mmHg 56%
    12:00 +34°C° 0.1 mm 3 mps 728 mmHg 52%
    13:00 +34°C° 0.5 mm 3 mps 727 mmHg 53%
    14:00 +34°C° 0.5 mm 3 mps 727 mmHg 54%
    15:00 +34°C° 0.5 mm 3 mps 726 mmHg 55%
    16:00 +33°C° 0.6 mm 3 mps 726 mmHg 62%
    17:00 +30°C° 0.6 mm 2 mps 725 mmHg 69%
    18:00 +29°C° 0.6 mm 2 mps 725 mmHg 75%
    19:00 +28°C° 1.5 mm 2 mps 726 mmHg 80%
    20:00 +27°C° 1.5 mm 2 mps 726 mmHg 84%
    21:00 +26°C° 1.5 mm 2 mps 726 mmHg 89%
    22:00 +26°C° 2.5 mm 2 mps 726 mmHg 89%
    23:00 +25°C° 2.5 mm 2 mps 726 mmHg 89%

    24 November, Saturday

    Time Temperature Precipitation Wind Pressure Humidity
    00:00 +25°C° 2.5 mm 2 mps 727 mmHg 89%
    01:00 +25°C° 1 mm 2 mps 726 mmHg 90%
    02:00 +25°C° 1 mm 3 mps 725 mmHg 91%
    03:00 +24°C° 1 mm 3 mps 725 mmHg 92%
    04:00 +24°C° 0.3 mm 3 mps 725 mmHg 92%
    05:00 +24°C° 0.3 mm 3 mps 725 mmHg 93%
    06:00 +24°C° 0.3 mm 3 mps 725 mmHg 93%
    07:00 +23°C° 2.8 mm 4 mps 725 mmHg 93%
    08:00 +23°C° 2.8 mm 4 mps 726 mmHg 93%
    09:00 +23°C° 2.8 mm 5 mps 726 mmHg 93%
    10:00 +25°C° 3.8 mm 5 mps 726 mmHg 90%
    11:00 +26°C° 3.8 mm 5 mps 726 mmHg 87%
    12:00 +27°C° 3.8 mm 5 mps 726 mmHg 84%
    13:00 +27°C° 1.6 mm 5 mps 725 mmHg 84%
    14:00 +27°C° 1.6 mm 4 mps 724 mmHg 85%
    15:00 +28°C° 1.6 mm 4 mps 724 mmHg 86%
    16:00 +27°C° 1.6 mm 3 mps 724 mmHg 87%
    17:00 +27°C° 1.6 mm 3 mps 723 mmHg 88%
    18:00 +26°C° 1.6 mm 2 mps 723 mmHg 90%
    19:00 +26°C° 0.3 mm 2 mps 724 mmHg 92%
    20:00 +25°C° 0.3 mm 2 mps 724 mmHg 94%
    21:00 +24°C° 0.3 mm 1 mps 724 mmHg 96%
    22:00 +24°C° 0.2 mm 1 mps 725 mmHg 96%
    23:00 +24°C° 0.2 mm 1 mps 725 mmHg 96%

    25 November, Sunday

    Time Temperature Precipitation Wind Pressure Humidity
    00:00 +24°C° 0.2 mm 1 mps 725 mmHg 96%
    01:00 +24°C° 0.2 mm 1 mps 724 mmHg 97%
    02:00 +24°C° 0.2 mm 1 mps 724 mmHg 97%
    03:00 +23°C° 0.2 mm 1 mps 724 mmHg 97%
    04:00 +23°C° 0 mm 1 mps 724 mmHg 97%
    05:00 +23°C° 0 mm 1 mps 724 mmHg 97%
    06:00 +23°C° 0 mm 1 mps 725 mmHg 98%
    07:00 +25°C° 0 mm 1 mps 725 mmHg 91%
    08:00 +26°C° 0 mm 1 mps 726 mmHg 84%
    09:00 +28°C° 0 mm 2 mps 726 mmHg 77%
    10:00 +30°C° 0 mm 2 mps 726 mmHg 69%
    11:00 +31°C° 0 mm 2 mps 726 mmHg 62%
    12:00 +34°C° 0 mm 2 mps 726 mmHg 54%
    13:00 +34°C° 0 mm 3 mps 725 mmHg 53%
    14:00 +34°C° 0 mm 3 mps 724 mmHg 51%
    15:00 +35°C° 0 mm 3 mps 724 mmHg 50%
    16:00 +34°C° 0 mm 2 mps 724 mmHg 55%
    17:00 +32°C° 0 mm 2 mps 724 mmHg 60%
    18:00 +31°C° 0 mm 2 mps 723 mmHg 65%
    19:00 +29°C° 0 mm 1 mps 724 mmHg 68%
    20:00 +28°C° 0 mm 1 mps 724 mmHg 72%
    21:00 +26°C° 0 mm 1 mps 725 mmHg 76%
    22:00 +26°C° 0 mm 2 mps 725 mmHg 77%
    23:00 +25°C° 0 mm 2 mps 725 mmHg 78%

    26 November, Monday

    Time Temperature Precipitation Wind Pressure Humidity
    00:00 +24°C° 0 mm 3 mps 726 mmHg 79%
    01:00 +24°C° 0 mm 3 mps 725 mmHg 81%
    02:00 +22°C° 0 mm 4 mps 725 mmHg 83%
    03:00 +22°C° 0 mm 4 mps 725 mmHg 85%
    04:00 +22°C° 0 mm 4 mps 725 mmHg 86%
    05:00 +21°C° 0 mm 4 mps 726 mmHg 86%
    06:00 +21°C° 0 mm 4 mps 726 mmHg 86%
    07:00 +23°C° 0 mm 4 mps 727 mmHg 81%
    08:00 +26°C° 0 mm 5 mps 727 mmHg 76%
    09:00 +27°C° 0 mm 5 mps 728 mmHg 71%
    10:00 +29°C° 0 mm 4 mps 728 mmHg 67%
    11:00 +30°C° 0 mm 4 mps 728 mmHg 63%
    12:00 +33°C° 0 mm 3 mps 728 mmHg 59%
    13:00 +33°C° 0.1 mm 3 mps 727 mmHg 57%
    14:00 +34°C° 0.1 mm 3 mps 726 mmHg 55%
    15:00 +34°C° 0.1 mm 3 mps 726 mmHg 54%
    16:00 +33°C° 0.2 mm 3 mps 726 mmHg 59%
    17:00 +30°C° 0.2 mm 3 mps 725 mmHg 65%
    18:00 +29°C° 0.2 mm 4 mps 725 mmHg 71%
    19:00 +28°C° 0.2 mm 4 mps 726 mmHg 74%
    20:00 +26°C° 0.2 mm 5 mps 727 mmHg 76%
    21:00 +25°C° 0.2 mm 5 mps 727 mmHg 79%
    22:00 +23°C° 0 mm 5 mps 728 mmHg 79%
    23:00 +22°C° 0 mm 5 mps 728 mmHg 78%
    Show more